Theta_e
305 305 306 307 307 307 307 307 307 308 306 307 309 309 307 306 310 318 319 319 317 320 322 320 319 317 315 315 316 316 315 316 314 314 312 313 314 314 316 314 315 315 315 314 315 316 316
304 305 306 306 306 306 306 307 307 306 308 307 307 309 308 306 306 318 320 320 318 319 321 320 318 316 314 317 316 315 314 315 314 313 312 313 313 313 315 316 317 315 316 316 315 317 316
304 306 306 306 306 307 306 306 305 306 306 307 307 308 308 307 306 311 314 321 319 317 321 320 317 315 314 316 316 314 314 314 314 314 314 314 314 316 316 316 315 315 317 315 314 314 315
303 305 304 304 305 306 308 307 306 306 306 307 307 307 308 308 307 308 313 320 319 317 321 319 316 314 316 316 315 316 316 315 315 314 314 314 314 315 316 315 314 316 314 316 313 316 315
302 302 302 301 302 303 305 308 307 307 307 307 307 307 308 307 306 307 311 320 320 317 321 317 315 313 317 315 314 317 315 315 314 314 314 314 313 314 315 317 316 314 313 312 312 313 315
300 301 301 301 302 302 303 305 307 308 308 307 306 307 308 308 306 306 311 319 319 318 316 315 315 316 315 316 315 315 315 314 313 313 315 315 314 314 314 316 313 314 315 313 314 314 316
299 300 300 302 301 301 302 304 305 307 309 307 306 307 307 308 307 306 310 317 316 316 315 318 317 318 313 314 314 313 314 313 313 314 316 314 315 315 314 315 311 311 313 313 313 315 315
298 299 300 301 301 302 303 302 303 305 309 308 306 307 308 308 307 306 310 318 316 315 319 316 315 316 315 315 315 314 313 315 315 315 313 315 317 315 312 312 314 314 314 314 313 312 313
298 299 300 300 301 303 304 304 303 303 308 308 307 307 308 308 307 307 310 313 316 317 319 318 317 316 315 315 317 315 313 313 315 314 315 315 315 314 314 313 313 313 313 313 312 313 314
298 299 300 300 302 303 305 306 304 302 307 308 307 307 308 309 307 307 309 312 316 315 319 317 319 319 317 314 315 313 313 314 314 315 314 314 313 315 314 314 314 314 313 313 313 314 315
297 298 300 300 301 304 306 306 306 303 307 308 307 307 308 308 306 307 309 314 316 314 318 314 318 317 317 317 315 314 313 317 316 314 314 315 313 315 316 315 314 315 315 315 316 317 319
297 298 300 299 300 304 305 306 305 303 307 307 308 308 308 308 306 307 309 312 316 318 317 314 317 320 320 318 315 313 317 317 316 313 314 313 315 314 315 315 315 317 322 321 321 322 327
296 297 300 299 301 302 304 306 305 304 306 307 307 308 308 307 307 306 309 310 321 321 311 319 318 319 320 319 318 314 317 320 321 321 320 319 319 318 317 318 317 321 322 320 326 327 322
297 297 298 299 301 300 303 306 308 305 306 307 307 308 308 307 306 307 310 313 321 318 313 316 318 317 318 317 318 316 315 321 320 318 315 318 318 320 320 321 320 321 321 325 320 324 319
296 297 297 298 300 300 301 304 308 307 306 306 307 308 308 306 306 306 310 313 319 316 313 317 318 318 316 314 315 316 315 316 319 319 314 317 315 317 319 319 320 322 323 320 322 322 324
297 297 297 297 298 300 300 301 307 308 307 306 308 308 307 306 306 307 307 311 311 315 313 316 316 317 318 316 314 315 315 313 315 317 315 316 315 316 317 318 318 321 322 326 327 326 323
296 297 297 297 298 298 300 300 301 306 306 307 307 307 305 305 306 308 308 309 310 309 314 315 316 318 316 317 315 314 314 313 313 315 316 318 317 322 318 319 319 319 323 324 326 325 325
295 296 296 296 297 298 299 299 299 301 307 308 301 305 301 304 305 303 309 307 309 313 312 313 315 316 317 316 316 314 315 312 312 314 318 317 322 323 320 322 317 319 320 324 325 326 327
294 295 296 296 296 298 298 298 298 299 303 307 299 302 303 304 307 306 306 308 311 314 312 312 315 318 316 317 318 316 315 314 314 314 317 317 321 320 319 319 322 319 319 320 322 323 327
294 294 295 296 296 297 298 298 298 298 300 300 300 304 303 305 303 306 308 310 310 312 314 312 315 318 319 318 318 318 317 322 316 313 318 316 319 316 316 318 323 325 321 320 321 324 323
294 294 295 296 296 297 298 298 298 298 299 301 299 303 305 307 305 305 308 311 312 314 314 315 317 318 320 319 319 319 319 324 322 317 319 319 319 318 316 322 321 323 325 324 321 321 326
293 294 294 295 296 297 298 297 298 301 299 302 300 303 300 303 305 305 308 311 312 313 314 314 315 317 319 320 319 323 320 324 325 322 319 321 324 323 320 319 323 326 324 323 326 325 325
293 294 295 295 296 297 297 296 300 304 300 301 301 303 305 305 305 306 309 312 314 313 311 313 314 316 319 320 319 319 320 321 322 322 321 321 324 327 329 326 327 328 327 326 325 324 326
294 294 295 295 295 297 297 297 302 304 302 301 302 304 304 307 306 308 309 311 314 314 313 312 314 316 313 314 315 315 315 319 321 322 320 322 322 324 329 326 332 326 323 326 327 327 326
294 294 295 295 295 296 297 297 301 303 303 303 303 303 304 307 305 310 312 312 313 313 312 313 313 313 314 316 317 316 316 316 317 319 322 321 320 320 329 328 324 323 321 323 327 328 325
294 296 295 295 295 296 297 297 298 302 303 304 303 303 303 303 306 309 313 313 314 314 313 314 312 313 312 310 313 320 320 319 319 319 317 321 318 322 318 327 331 323 318 318 322 328 322
295 295 295 294 295 295 296 297 297 299 303 303 303 303 304 303 306 308 313 314 313 313 313 313 313 315 313 309 315 319 319 317 319 319 319 320 321 322 320 323 323 317 314 319 327 324 320
294 295 295 294 295 296 296 297 298 299 301 303 300 302 303 304 305 307 307 310 312 313 313 311 313 308 312 312 314 314 317 316 317 317 320 320 320 321 319 322 324 313 317 323 320 310 317
294 295 295 295 295 295 294 296 297 299 300 300 298 298 301 301 301 301 303 303 305 307 310 311 313 309 310 312 311 313 315 313 317 320 315 321 320 321 321 322 315 314 318 315 309 312 312
Wind_Speed
26 27 29 28 28 28 29 30 31 29 30 30 29 26 24 22 18 17 21 20 19 18 16 13 11 10 7 3 7 11 9 5 4 1 3 2 3 3 3 2 2 3 2 2 3 7 7
28 31 29 30 32 34 32 32 32 34 32 32 31 30 28 24 20 15 17 21 19 19 16 13 9 7 2 7 8 10 6 4 2 2 2 2 3 3 2 2 2 1 3 6 6 10 6
31 30 29 32 34 36 38 38 38 36 36 34 33 32 31 26 22 22 16 22 20 19 17 14 9 5 4 13 7 4 3 1 2 3 2 2 4 2 3 0 0 1 5 7 6 3 7
31 30 30 35 36 34 33 37 39 38 38 37 35 34 33 29 25 24 19 21 20 19 18 13 9 4 7 8 13 28 23 16 11 3 1 3 2 3 1 1 3 1 2 4 1 3 2
30 32 31 37 38 38 36 34 39 41 41 40 38 36 35 31 28 25 21 23 21 19 18 13 7 4 8 5 7 27 20 11 7 4 3 1 2 2 2 3 2 4 4 4 7 1 2
31 32 32 34 35 39 40 37 34 41 44 44 42 39 37 35 29 27 24 24 23 16 14 12 3 3 7 5 7 8 15 18 4 6 2 2 3 3 3 6 9 5 4 4 7 1 2
32 32 36 35 38 39 38 37 37 37 44 46 43 41 40 36 33 28 27 16 10 4 11 9 9 5 2 3 7 6 8 13 7 4 9 3 6 13 17 12 3 5 3 6 5 4 7
33 36 37 38 39 37 38 41 41 37 40 46 44 43 41 40 36 29 26 10 23 10 6 14 3 15 13 3 2 6 13 10 11 15 9 5 17 14 7 9 10 7 8 11 14 11 6
33 37 36 40 41 42 44 43 42 40 37 46 46 45 43 40 34 27 28 38 28 19 5 10 15 8 5 10 6 6 13 5 9 14 20 19 6 15 13 10 10 9 11 8 11 9 8
35 38 37 41 44 48 44 45 46 43 37 45 46 46 44 38 29 26 29 42 28 13 4 11 13 15 15 5 8 15 17 6 5 19 11 13 10 8 14 15 13 10 12 10 9 5 8
37 39 36 41 50 47 36 33 41 40 36 44 47 47 46 47 20 25 34 28 37 16 9 14 17 13 18 21 9 13 17 4 9 9 9 10 10 19 15 9 16 7 6 10 4 6 4
38 38 35 41 47 45 30 24 29 36 35 40 45 48 47 43 31 30 32 36 23 9 13 11 13 19 19 24 17 7 13 4 4 8 4 7 2 9 8 6 18 9 7 4 3 2 8
37 38 36 39 42 43 31 28 29 36 35 39 42 48 50 41 32 36 29 17 14 13 11 14 12 21 24 18 27 14 18 21 11 10 12 5 8 3 4 7 10 10 9 2 3 4 10
35 37 40 38 39 43 38 29 31 36 38 38 41 49 50 48 39 28 27 15 19 18 23 14 16 22 22 18 21 26 20 19 23 10 9 14 10 15 9 7 10 18 11 6 8 5 7
33 35 37 39 39 38 36 39 22 41 39 39 40 43 40 42 35 31 13 18 11 27 29 18 23 22 15 17 13 23 29 29 23 22 15 11 11 7 10 6 12 7 11 8 5 4 7
33 33 35 37 37 36 33 38 17 37 37 39 39 24 27 38 33 18 7 27 6 15 24 22 18 13 19 26 15 23 25 22 21 28 13 7 4 6 15 13 14 9 12 4 3 6 9
33 33 33 34 36 37 33 31 27 16 31 41 16 7 16 31 23 8 11 8 18 20 19 24 16 10 14 22 19 24 26 10 30 23 21 5 4 2 11 12 19 8 8 5 6 5 6
30 33 33 33 33 34 32 31 28 23 30 42 3 6 18 31 9 3 7 8 10 15 25 22 10 5 15 22 20 19 19 24 21 23 29 21 4 6 10 1 8 20 17 13 7 7 6
30 33 33 33 32 31 31 31 30 24 12 23 5 2 16 24 9 13 4 9 15 18 17 27 7 5 10 16 11 16 18 12 10 25 22 20 7 6 4 7 4 13 14 16 13 2 15
29 30 33 33 33 31 30 32 28 26 18 6 3 4 2 6 3 12 10 12 20 13 20 13 14 9 8 12 4 19 9 3 11 26 10 22 5 20 17 5 10 10 20 17 18 10 22
30 31 33 34 34 36 35 33 35 30 24 7 3 4 2 5 9 12 23 15 21 9 22 7 5 16 10 8 14 8 12 5 4 12 11 13 15 14 15 2 9 12 18 21 20 25 13
30 31 34 33 34 35 37 46 46 32 30 7 4 4 3 2 7 18 17 21 29 28 13 21 12 12 6 10 9 10 14 6 7 3 14 3 4 7 12 12 9 4 11 25 26 24 22
31 31 33 33 34 35 38 50 55 25 39 3 6 3 3 6 5 13 10 15 25 25 7 32 13 13 5 3 9 8 6 7 10 14 14 11 6 4 8 6 6 4 22 19 14 20 18
32 32 32 32 33 34 37 49 35 39 40 14 8 3 3 3 8 11 17 13 24 25 17 13 13 11 3 12 9 8 11 10 8 7 4 8 8 3 5 4 14 18 9 18 21 21 20
32 32 31 30 30 31 33 40 33 35 20 12 8 3 2 3 3 15 20 24 22 20 4 14 3 6 13 5 4 4 3 2 3 7 6 3 5 3 6 10 17 14 9 9 14 25 20
31 33 30 28 27 28 28 31 32 4 13 8 6 6 3 1 3 8 20 20 11 19 12 6 5 6 7 3 3 7 9 5 5 5 10 9 4 3 4 8 10 8 7 10 8 20 16
31 32 29 25 25 25 25 26 28 20 10 11 5 5 2 2 3 5 1 12 6 11 11 2 9 4 7 3 3 5 10 1 9 11 9 7 9 16 10 7 6 7 4 9 11 5 11
30 30 27 24 23 21 22 23 23 16 4 12 4 7 2 2 3 4 5 2 3 7 7 6 7 1 5 8 5 4 4 6 6 7 6 10 9 5 6 8 15 11 10 18 7 2 7
31 29 24 21 19 19 19 20 22 19 10 5 5 5 6 2 2 6 7 16 6 3 6 8 5 6 5 4 3 3 3 4 7 6 6 6 7 7 10 7 2 15 8 6 4 5 5
Wind_Direction
305 304 301 295 288 285 280 276 275 270 267 267 264 264 266 260 259 258 242 246 250 251 254 259 275 301 326 253 250 277 307 305 318 93 94 117 152 152 194 187 159 205 278 186 290 298 276
306 304 298 296 291 283 277 273 270 269 262 261 259 260 260 264 244 240 237 242 245 247 246 248 262 282 253 243 269 266 282 259 314 40 108 124 170 184 148 182 190 190 281 274 263 256 244
316 312 307 305 306 293 279 267 265 265 262 255 256 254 256 257 252 241 258 230 233 242 237 238 236 248 236 235 265 238 263 319 347 350 112 126 138 162 141 200 27 152 303 309 227 251 236
313 315 316 314 313 312 290 274 264 259 255 252 249 249 250 253 254 237 251 223 223 232 230 224 224 196 246 261 261 261 258 270 273 256 194 159 139 108 149 116 25 356 107 304 308 171 337
315 312 316 314 310 307 302 282 267 259 250 245 242 243 244 248 245 245 234 218 211 223 217 203 198 189 263 251 234 246 241 221 235 216 174 156 107 117 92 126 347 12 261 247 304 213 151
314 314 310 309 306 303 297 292 283 261 249 240 239 237 234 237 239 244 226 217 198 203 186 166 185 177 237 220 209 219 224 212 166 132 119 109 62 163 134 171 228 187 226 233 250 64 116
314 314 312 305 304 297 289 285 283 279 248 235 235 232 229 228 234 234 222 168 144 190 204 188 176 243 102 281 253 208 175 162 139 148 185 177 202 212 196 204 157 134 195 268 265 224 315
317 316 312 310 305 295 288 280 277 276 246 231 229 227 224 225 227 225 219 224 192 147 186 234 142 237 257 2 307 208 165 160 179 197 148 196 232 222 214 191 212 209 237 259 288 282 200
318 319 314 314 309 301 291 273 266 265 250 228 225 222 218 213 217 217 217 228 193 150 177 188 214 201 222 197 231 227 179 156 186 181 193 205 214 199 196 197 197 222 218 229 255 314 266
321 323 320 320 318 314 300 278 253 248 250 226 221 218 214 198 203 208 224 218 216 200 218 196 197 217 216 168 245 203 189 158 186 202 172 227 211 157 199 221 198 238 212 223 235 274 272
325 326 327 327 329 324 311 292 240 236 239 223 216 215 207 195 194 191 216 194 197 188 211 193 183 176 188 195 125 201 182 169 176 167 171 214 187 200 210 196 183 218 172 193 188 209 310
328 329 333 334 333 333 317 293 245 233 230 221 214 209 201 197 205 219 203 189 218 214 199 156 142 174 158 201 196 130 176 199 158 166 241 215 192 196 207 188 171 146 125 107 84 159 259
331 332 333 337 336 343 324 308 252 233 227 220 210 202 193 192 208 209 203 196 213 208 156 152 162 172 173 178 199 177 184 192 178 180 202 187 218 206 166 121 166 166 140 192 220 191 249
334 335 339 341 342 348 344 319 256 229 220 213 205 195 189 200 203 200 200 201 231 173 193 146 152 169 184 157 200 193 183 195 213 205 182 203 222 190 182 177 170 190 179 182 206 206 276
337 339 340 343 346 352 350 347 293 217 210 206 200 187 191 198 202 204 206 219 218 163 186 149 146 161 197 183 164 182 200 203 198 200 205 188 229 174 188 176 150 179 217 217 269 224 275
339 340 342 341 345 354 356 354 328 201 200 195 186 183 195 193 201 217 221 219 216 212 187 165 165 180 174 179 167 184 188 209 207 201 200 196 206 199 189 195 223 199 139 166 211 217 234
337 340 342 342 345 350 357 355 353 212 194 183 178 183 182 182 177 219 222 221 224 256 257 196 179 154 174 171 182 185 191 188 195 192 198 166 188 115 150 203 185 174 194 199 168 191 220
334 338 341 342 344 347 350 350 345 349 191 176 114 175 161 164 195 187 237 191 199 248 239 208 190 131 163 173 176 183 193 199 191 178 192 200 141 185 197 134 208 211 204 176 192 194 232
336 336 339 340 342 341 341 339 334 324 253 178 125 123 157 160 204 216 215 204 197 216 233 209 204 146 168 165 166 185 200 197 174 181 185 180 204 189 234 263 186 213 209 211 216 108 218
337 337 338 338 337 337 335 331 324 312 298 110 147 140 203 180 181 216 202 202 203 233 234 198 203 156 147 170 175 188 181 161 183 190 163 165 160 208 213 208 155 196 202 205 198 215 238
337 338 339 337 336 334 331 328 314 293 268 232 163 190 133 189 220 208 205 183 197 209 215 204 187 194 176 160 186 171 172 131 101 180 166 170 210 205 223 75 181 203 193 198 198 218 205
336 336 337 336 335 334 331 325 315 279 230 192 153 152 156 203 167 190 210 203 193 203 189 215 175 188 155 163 197 175 160 156 164 110 175 177 187 169 228 220 218 221 218 219 213 222 232
337 337 337 338 338 338 336 333 326 224 186 128 184 135 119 165 213 193 205 198 193 174 230 204 187 171 106 122 108 89 79 96 145 163 176 165 150 144 229 175 160 229 231 231 225 232 231
337 336 336 339 340 343 344 344 346 177 166 116 136 122 132 257 205 221 197 201 183 182 177 178 173 159 161 129 97 71 63 71 75 81 113 153 172 133 222 98 242 247 253 238 235 235 233
337 336 338 339 343 348 350 356 20 145 146 128 125 118 124 270 225 209 196 189 198 189 151 168 111 120 156 80 81 70 39 73 177 176 165 132 128 158 207 234 261 293 237 204 199 245 230
339 337 340 340 345 350 353 360 11 50 169 121 89 104 116 7 254 275 187 185 175 196 190 122 67 128 72 82 99 199 190 152 183 174 181 166 114 179 133 229 238 245 228 203 190 257 209
341 342 340 343 344 351 354 1 7 10 203 182 192 181 133 251 246 314 80 170 137 150 194 113 163 120 119 126 144 181 217 208 221 224 222 201 202 215 207 224 254 225 202 143 183 263 204
342 344 341 340 343 349 357 8 15 11 40 190 178 190 155 269 338 351 17 351 84 146 155 157 128 130 153 187 186 169 166 186 163 172 181 171 172 186 200 221 248 154 172 200 212 230 192
344 346 344 341 344 353 4 12 21 37 39 107 71 341 234 110 306 305 32 30 18 352 141 177 143 161 153 140 175 154 167 155 167 197 189 195 190 181 192 206 170 189 205 188 181 182 201